User: anonymous   Login
Location: Unspecified
(0.0000°N, 0.0000°E)
Time: 11:16:10
(UTC+00:00)
Language:

Envisat - Orbit

View from above orbital plane
View from above orbital plane
View from above satellite
View from above satellite

Ground track
Ground track

The orbit data is extracted from the following two-line orbital elements,

1 27386U 02009A   18020.07727121 -.00000006  00000-0  11542-4 0  9999
2 27386  98.2047  60.9699 0001433  82.5906 277.5448 14.37913503832240
Epoch (UTC): 20 January 2018 01:51:16
Eccentricity: 0.0001433
inclination: 98.2047°
perigee height: 764 km
apogee height: 766 km
right ascension of ascending node: 60.9699°
argument of perigee: 82.5906°
revolutions per day: 14.37913503
mean anomaly at epoch: 277.5448°
orbit number at epoch: 83224

The dashed part of the orbit path shows where the satellite is in the earth's shadow,  

DLR